Location: *
(51.8167°N, 12.5000°E)
Time: 14:56:55
(UTC+00:00)

Cosmos 1954 Rocket - Pass Details

Date: 16 September 2019
Orbit: 753 x 781 km, 74.0° (Epoch: 20 October)

Event Time Altitude Azimuth Distance (km) Brightness Sun altitude
Rises 19:44:59 0° 334° (NNW) 3,252 8.3 -21.3°
Reaches altitude 10° 19:47:23 10° 334° (NNW) 2,317 7.4 -21.6°
Maximum altitude 19:52:39 83° 247° (WSW) 775 3.9 -22.2°
Enters shadow 19:54:08 48° 166° (SSE) 991 4.2 -22.4°
